sat.trackr.live / text

‹ back to catalog

ONEWEB-0463

NORAD 51650 · 2022-012AE

PAYLOAD ACTIVE UNKNOWN

§ Identity

Operator
Country
UK
Launch date
2022-02-10
Launch site
FRGUI
Launch vehicle
Mass (kg)
RCS (m²)

Purposes: comms

External: N2YO · Heavens-Above · Gunter

§ Orbital elements

Epoch: 2026-09-20T04:57:36.366624Z

Period
109.29 min
Inclination
87.9179°
Eccentricity
0.0001762
Mean motion
13.17649710 rev/d
Perigee alt
1,192.4 km
Apogee alt
1,195.0 km
Semi-major
7,571.8 km
B*
4.4130e-4
RAAN
347.0094°
Arg perigee
105.4452°
Mean anomaly
254.6874°
Rev number
22,618

§ Raw data

ONEWEB-04631 51650U 22012AE  26263.20667091  .00000184  00000+0  44130-3 0  99912 51650  87.9179 347.0094 0001762 105.4452 254.6874 13.17649710226188

JSON: /api/v1/satellites/51650 · /tle

For live sub-satellite position, see the globe view (requires WebGL).

§ Visibility from observer

Set your observer location to see the next 7 days of passes ≥ 10°. The values pass through the URL so the page stays shareable.

No JS? Fill the form by hand. The geolocation button needs JavaScript.